TimeEDT,TemperatureF,Dew PointF,Humidity,Sea Level PressureIn,VisibilityMPH,Wind Direction,Wind SpeedMPH,Gust SpeedMPH,PrecipitationIn,Events,Conditions,WindDirDegrees,DateUTC
12:54 AM,50.0,48.9,96,29.88,5.0,West,5.8,-,N/A,,Overcast,260,2012-10-01 04:54:00
1:54 AM,50.0,48.0,93,29.88,9.0,West,6.9,-,N/A,,Overcast,270,2012-10-01 05:54:00
2:19 AM,48.2,46.4,93,29.87,10.0,WSW,4.6,-,N/A,,Overcast,250,2012-10-01 06:19:00
2:54 AM,50.0,46.9,89,29.87,10.0,West,6.9,-,N/A,,Overcast,260,2012-10-01 06:54:00
3:30 AM,48.2,46.4,93,29.87,10.0,West,4.6,-,N/A,,Scattered Clouds,280,2012-10-01 07:30:00
3:54 AM,48.0,46.0,93,29.87,10.0,West,4.6,-,N/A,,Mostly Cloudy,270,2012-10-01 07:54:00
4:54 AM,46.9,45.0,93,29.88,10.0,Variable,4.6,-,N/A,,Clear,0,2012-10-01 08:54:00
5:54 AM,46.9,44.1,90,29.89,10.0,West,8.1,-,N/A,,Clear,270,2012-10-01 09:54:00
6:54 AM,46.0,44.1,93,29.91,10.0,Calm,Calm,-,N/A,,Clear,0,2012-10-01 10:54:00
7:14 AM,44.6,42.8,93,29.92,10.0,WSW,3.5,-,N/A,,Partly Cloudy,240,2012-10-01 11:14:00
7:54 AM,46.9,44.1,90,29.93,10.0,WNW,3.5,-,N/A,,Clear,290,2012-10-01 11:54:00
8:16 AM,48.2,44.6,87,29.93,10.0,WNW,6.9,-,N/A,,Partly Cloudy,290,2012-10-01 12:16:00
8:54 AM,50.0,45.0,83,29.95,10.0,West,6.9,-,N/A,,Clear,260,2012-10-01 12:54:00
9:54 AM,53.1,45.0,74,29.96,10.0,West,9.2,-,N/A,,Scattered Clouds,260,2012-10-01 13:54:00
10:54 AM,55.4,46.4,72,29.97,10.0,WSW,8.1,-,N/A,,Overcast,240,2012-10-01 14:54:00
11:54 AM,60.1,48.0,64,29.94,10.0,West,8.1,-,N/A,,Scattered Clouds,270,2012-10-01 15:54:00
12:54 PM,64.9,46.9,52,29.92,10.0,WNW,9.2,-,N/A,,Clear,300,2012-10-01 16:54:00
1:54 PM,64.9,45.0,48,29.91,10.0,WNW,6.9,-,N/A,,Scattered Clouds,290,2012-10-01 17:54:00
2:54 PM,66.0,46.0,48,29.90,10.0,South,3.5,-,N/A,,Scattered Clouds,180,2012-10-01 18:54:00
3:54 PM,66.9,46.9,49,29.90,10.0,Variable,5.8,-,N/A,,Clear,0,2012-10-01 19:54:00
4:54 PM,68.0,46.0,45,29.89,10.0,WNW,4.6,-,N/A,,Clear,290,2012-10-01 20:54:00
5:54 PM,62.6,53.6,72,29.90,10.0,ESE,3.5,-,N/A,,Clear,120,2012-10-01 21:54:00
6:54 PM,59.0,53.1,81,29.92,10.0,Calm,Calm,-,N/A,,Clear,0,2012-10-01 22:54:00
7:54 PM,57.9,54.0,87,29.93,10.0,Calm,Calm,-,N/A,,Clear,0,2012-10-01 23:54:00
8:54 PM,57.9,53.1,84,29.94,10.0,Calm,Calm,-,N/A,,Clear,0,2012-10-02 00:54:00
9:54 PM,57.0,54.0,89,29.94,10.0,Calm,Calm,-,N/A,,Mostly Cloudy,0,2012-10-02 01:54:00
10:54 PM,59.0,51.1,75,29.92,10.0,NNE,3.5,-,N/A,,Scattered Clouds,30,2012-10-02 02:54:00
11:54 PM,57.2,53.6,88,29.93,10.0,Calm,Calm,-,N/A,,Overcast,0,2012-10-02 03:54:00